TAP2011 LPPR-LPPT

Flight info

Callsign TAP2011
Flight time N/A
Altitude 37000
Route MANIK DCT ABRIL DCT XAMAX
Aircraft A20N/M-SDE2E3FGHIRWXY/LB1

Departure

Time 2026-05-06 20:49
Airport Francisco de Sá Carneiro Airport (LPPR)

Arrival

Time N/A
Airport Lisbon Humberto Delgado Airport (LPPT)
Time Latitude Longitude Altitude Speed Heading
2026-05-06 20:12 41.23683 -8.67257 257 ft 0 kts 83°
2026-05-06 20:37 41.23683 -8.67262 257 ft 0 kts 83°
2026-05-06 20:38 41.23682 -8.67271 257 ft 3 kts 83°
2026-05-06 20:38 41.23680 -8.67295 258 ft 3 kts 94°
2026-05-06 20:38 41.23683 -8.67318 258 ft 3 kts 108°
2026-05-06 20:38 41.23689 -8.67339 258 ft 4 kts 118°
2026-05-06 20:39 41.23696 -8.67374 258 ft 7 kts 97°
2026-05-06 20:39 41.23706 -8.67434 258 ft 7 kts 122°
2026-05-06 20:39 41.23722 -8.67452 258 ft 0 kts 163°
2026-05-06 20:42 41.23722 -8.67451 258 ft 1 kts 163°
2026-05-06 20:42 41.23685 -8.67431 258 ft 10 kts 158°
2026-05-06 20:43 41.23663 -8.67429 259 ft 7 kts 176°
2026-05-06 20:43 41.23588 -8.67416 261 ft 15 kts 172°
2026-05-06 20:43 41.23458 -8.67387 262 ft 20 kts 162°
2026-05-06 20:43 41.23348 -8.67377 263 ft 6 kts 225°
2026-05-06 20:44 41.23335 -8.67433 265 ft 10 kts 252°
2026-05-06 20:44 41.23315 -8.67542 270 ft 14 kts 258°
2026-05-06 20:44 41.23305 -8.67613 274 ft 0 kts 258°
2026-05-06 20:46 41.23303 -8.67622 275 ft 3 kts 258°
2026-05-06 20:46 41.23296 -8.67671 276 ft 8 kts 263°
2026-05-06 20:47 41.23339 -8.67744 276 ft 14 kts 338°
2026-05-06 20:47 41.23406 -8.67763 273 ft 0 kts 345°
2026-05-06 20:48 41.23409 -8.67764 273 ft 3 kts 345°
2026-05-06 20:48 41.23636 -8.67819 263 ft 79 kts 348°
2026-05-06 20:48 41.24439 -8.68033 315 ft 145 kts 348°
2026-05-06 20:49 41.25485 -8.68321 890 ft 165 kts 348°
2026-05-06 20:49 41.26686 -8.68665 1512 ft 189 kts 347°
2026-05-06 20:49 41.28058 -8.69067 2096 ft 216 kts 347°
2026-05-06 20:49 41.29633 -8.69544 2585 ft 247 kts 347°
2026-05-06 20:50 41.31393 -8.70091 3128 ft 273 kts 347°
2026-05-06 20:50 41.33346 -8.70696 3670 ft 301 kts 347°
2026-05-06 20:50 41.35479 -8.71353 4068 ft 332 kts 348°
2026-05-06 20:50 41.37789 -8.71994 4880 ft 341 kts 348°
2026-05-06 20:51 41.40117 -8.72647 5999 ft 344 kts 348°
2026-05-06 20:51 41.42532 -8.73236 6551 ft 366 kts 351°
2026-05-06 20:51 41.45115 -8.73699 7215 ft 375 kts 353°
2026-05-06 20:51 41.47696 -8.74084 8444 ft 372 kts 354°
2026-05-06 20:52 41.50291 -8.74390 9385 ft 381 kts 355°
2026-05-06 20:52 41.52960 -8.75167 9433 ft 410 kts 339°
2026-05-06 20:52 41.55578 -8.77028 9105 ft 442 kts 324°
2026-05-06 20:52 41.58000 -8.79296 9654 ft 409 kts 323°
2026-05-06 20:53 41.60024 -8.81749 9344 ft 376 kts 305°
2026-05-06 20:53 41.61176 -8.84661 9343 ft 341 kts 283°
2026-05-06 20:53 41.61418 -8.86670 9453 ft 323 kts 268°
2026-05-06 20:53 41.60689 -8.90278 10166 ft 296 kts 234°
2026-05-06 20:54 41.59249 -8.92275 10593 ft 307 kts 211°
2026-05-06 20:54 41.57216 -8.93375 10899 ft 328 kts 190°
2026-05-06 20:54 41.54929 -8.93873 11694 ft 337 kts 189°
2026-05-06 20:54 41.53362 -8.94200 12430 ft 336 kts 189°
2026-05-06 20:55 41.51038 -8.94671 13427 ft 342 kts 189°
2026-05-06 20:55 41.48656 -8.95140 14216 ft 349 kts 188°
2026-05-06 20:55 41.46244 -8.95610 15053 ft 353 kts 189°
2026-05-06 20:55 41.43800 -8.96085 15924 ft 357 kts 188°
2026-05-06 20:56 41.41326 -8.96568 16795 ft 359 kts 188°
2026-05-06 20:56 41.38842 -8.97041 17714 ft 361 kts 189°
2026-05-06 20:56 41.36333 -8.97508 18473 ft 367 kts 189°
2026-05-06 20:56 41.33785 -8.97989 19136 ft 372 kts 188°
2026-05-06 20:57 41.31212 -8.98481 19883 ft 374 kts 189°
2026-05-06 20:57 41.28634 -8.98970 20718 ft 375 kts 189°
2026-05-06 20:57 41.26058 -8.99454 21596 ft 374 kts 188°
2026-05-06 20:57 41.23458 -8.99950 22209 ft 380 kts 188°
2026-05-06 20:58 41.20805 -9.00465 22693 ft 389 kts 189°
2026-05-06 20:58 41.18124 -9.00974 22927 ft 388 kts 189°
2026-05-06 20:58 41.15468 -9.01470 22951 ft 384 kts 188°
2026-05-06 20:58 41.12814 -9.01970 22955 ft 386 kts 188°
2026-05-06 20:59 41.10140 -9.02478 22955 ft 389 kts 189°
2026-05-06 20:59 41.07476 -9.02980 22958 ft 384 kts 189°
2026-05-06 20:59 41.04845 -9.03469 22957 ft 382 kts 188°
2026-05-06 20:59 41.02191 -9.03968 22957 ft 388 kts 188°
2026-05-06 21:00 40.99517 -9.04474 22962 ft 388 kts 188°
2026-05-06 21:00 40.96851 -9.04974 22962 ft 386 kts 189°
2026-05-06 21:00 40.94211 -9.05462 22965 ft 383 kts 188°
2026-05-06 21:00 40.91556 -9.05958 22962 ft 388 kts 188°
2026-05-06 21:01 40.88876 -9.06464 22963 ft 388 kts 189°
2026-05-06 21:01 40.86229 -9.06960 22959 ft 385 kts 189°
2026-05-06 21:01 40.83580 -9.07451 22959 ft 385 kts 188°
2026-05-06 21:01 40.80909 -9.07952 22960 ft 389 kts 188°
2026-05-06 21:02 40.78228 -9.08459 22963 ft 388 kts 189°
2026-05-06 21:02 40.75568 -9.08956 22960 ft 384 kts 189°
2026-05-06 21:02 40.72936 -9.09435 22966 ft 382 kts 188°
2026-05-06 21:02 40.70286 -9.09920 22967 ft 388 kts 189°
2026-05-06 21:03 40.67620 -9.10409 22967 ft 386 kts 189°
2026-05-06 21:03 40.65005 -9.10885 22966 ft 384 kts 189°
2026-05-06 21:03 40.62376 -9.11356 22966 ft 381 kts 188°
2026-05-06 21:03 40.59729 -9.11837 22965 ft 387 kts 188°
2026-05-06 21:04 40.57050 -9.12333 22967 ft 388 kts 189°
2026-05-06 21:04 40.54401 -9.12814 22959 ft 383 kts 188°
2026-05-06 21:04 40.51767 -9.13284 22965 ft 383 kts 188°
2026-05-06 21:04 40.49116 -9.13762 22966 ft 386 kts 188°
2026-05-06 21:05 40.46442 -9.14251 22966 ft 388 kts 189°
2026-05-06 21:05 40.43785 -9.14730 22966 ft 382 kts 189°
2026-05-06 21:05 40.41159 -9.15195 22966 ft 382 kts 189°
2026-05-06 21:05 40.38515 -9.15671 22967 ft 386 kts 188°
2026-05-06 21:06 40.35845 -9.16156 22970 ft 386 kts 189°
2026-05-06 21:06 40.33198 -9.16630 22966 ft 383 kts 189°
2026-05-06 21:06 40.30573 -9.17091 22966 ft 382 kts 188°
2026-05-06 21:06 40.27917 -9.17566 22965 ft 388 kts 188°
2026-05-06 21:07 40.25235 -9.18055 22964 ft 387 kts 189°
2026-05-06 21:07 40.22590 -9.18529 22965 ft 382 kts 188°
2026-05-06 21:07 40.19950 -9.18999 22964 ft 383 kts 188°
2026-05-06 21:07 40.17297 -9.19475 22969 ft 386 kts 188°
2026-05-06 21:08 40.14614 -9.19964 22956 ft 390 kts 189°
2026-05-06 21:08 40.11937 -9.20441 22758 ft 386 kts 189°
2026-05-06 21:08 40.09309 -9.20897 22456 ft 378 kts 188°
2026-05-06 21:08 40.06707 -9.21347 21811 ft 376 kts 189°
2026-05-06 21:09 40.04108 -9.21799 21008 ft 378 kts 189°
2026-05-06 21:09 40.01516 -9.22238 20367 ft 374 kts 189°